Flag for Germany Weather past 2 weeks in Neu-Ulm, Bavaria, Germany

Now
72 °F

Passing clouds.


Feels Like: 71 °F
Forecast: 69 / 92 °F
Wind: 3 mph from Southeast

Location: Laupheim Airport

Current Time: Jul 5, 2015 at 1:26:25 AM

Latest Report: Jul 5, 2015 at 12:20 AM


Visibility: N/A

Pressure: 30.15 "Hg

Humidity: 83%

Dew point: 66 °F

Location of Neu-UlmLocation

Historic Weather in Neu-Ulm — Graph

°F

Neu-Ulm temperature yesterday

Maximum temperature yesterday: 90 °F (at 2:20 PM)
Minimum temperature yesterday: 61 °F (at 5:20 AM)
Average temperature yesterday: 77 °F

Past Weeks' High & Low Weather Summary

 TemperatureHumidityPressure
High90 °F (Jul 4, 2:20 PM)100% (Jun 20, 7:20 AM)30.30 "Hg (Jun 20, 7:20 AM)
Low46 °F (Jun 25, 5:20 AM)37% (Jul 1, 5:00 PM)29.74 "Hg (Jun 22, 9:20 PM)
Average65 °F70%30.14 "Hg
* Reported Jun 20 12:20 AM — Jul 5 12:20 AM, Neu-Ulm, Weather by CustomWeather, © 2015

Note: Actual official high and low records may vary slightly from our data, if they occured in-between our weather recording intervals... More about our weather records

Advertising

Neu-Ulm weather history for previous 24 hours

 ConditionsComfort  
Time TempWeatherWind HumidityBarometerVisibility
12:20 AM
Sun, Jul 5
72 °FPassing clouds.3 mph83%30.15 "HgN/A
11:20 PM
Sat, Jul 4
75 °FPassing clouds.3 mph74%30.18 "HgN/A
10:20 PM79 °FPartly sunny.3 mph65%30.18 "HgN/A
9:20 PM81 °FPartly sunny.2 mph62%30.18 "HgN/A
8:20 PM82 °FPartly sunny.3 mph55%30.18 "HgN/A
7:20 PM84 °FScattered clouds.3 mph55%30.18 "HgN/A
6:20 PM88 °FScattered clouds.2 mph49%30.18 "HgN/A
5:20 PM90 °FScattered clouds.3 mph46%30.18 "HgN/A
4:20 PM90 °FScattered clouds.6 mph43%30.18 "HgN/A
3:20 PM90 °FScattered clouds.5 mph46%30.18 "HgN/A
2:20 PM90 °FScattered clouds.6 mph49%30.21 "HgN/A
1:20 PM88 °FPassing clouds.5 mph52%30.21 "HgN/A
12:20 PM86 °FPassing clouds.6 mph55%30.21 "HgN/A
11:20 AM82 °FPassing clouds.6 mph62%30.21 "HgN/A
10:20 AM79 °FPassing clouds.6 mph65%30.24 "HgN/A
9:20 AM75 °FMild.3 mph69%30.24 "HgN/A
8:20 AM70 °FMild.1 mph83%30.24 "HgN/A
7:20 AM66 °FMild.2 mph88%30.24 "HgN/A
6:20 AM64 °FPassing clouds.2 mph88%30.24 "Hg6 mi
5:20 AM61 °FPassing clouds.3 mph94%30.21 "HgN/A
4:20 AM64 °FPassing clouds.3 mph88%30.21 "HgN/A
3:20 AM64 °FPassing clouds.2 mph94%30.24 "HgN/A
2:20 AM68 °FPassing clouds.2 mph83%30.24 "HgN/A
1:20 AM70 °FPassing clouds.2 mph78%30.24 "HgN/A
Weather by CustomWeather, © 2015

See weather overviewHow to use our weather pages